When you browse on this site, cookies collect data to enhance your experience and personalize the content and advertising you see.
Visit our Privacy Policy to learn more. By continuing to use the site, you agree to this use of cookies and data.
  • In Netherlands
  • List of Countries
  • For 7 days
  • Water Temperature
  • Weather Map
  • Weather Widgets
  • user-avatar
    Login

    Hourly Weather Zubachiha

    Today, 20 January, Monday

    Time Temperature Precipitation Wind Pressure Humidity
    00:00 0°C° 0 mm 5 mps 751 mmHg 91%
    01:00 0°C° 0 mm 5 mps 751 mmHg 88%
    02:00 0°C° 0 mm 5 mps 751 mmHg 86%
    03:00 0°C° 0 mm 5 mps 751 mmHg 89%
    04:00 0°C° 0 mm 5 mps 751 mmHg 92%
    05:00 -1°C° 0 mm 5 mps 751 mmHg 94%
    06:00 -1°C° 0.1 mm 5 mps 751 mmHg 95%
    07:00 -1°C° 0.1 mm 5 mps 751 mmHg 96%
    08:00 -1°C° 0.1 mm 5 mps 751 mmHg 96%
    09:00 -1°C° 0.1 mm 5 mps 751 mmHg 96%
    10:00 -1°C° 0.1 mm 5 mps 751 mmHg 95%
    11:00 -1°C° 0.1 mm 5 mps 751 mmHg 94%
    12:00 -1°C° 0.1 mm 5 mps 751 mmHg 95%
    13:00 -1°C° 0.1 mm 5 mps 751 mmHg 95%
    14:00 -1°C° 0.1 mm 5 mps 751 mmHg 96%
    15:00 -1°C° 0 mm 5 mps 750 mmHg 95%
    16:00 -1°C° 0 mm 5 mps 750 mmHg 95%
    17:00 -1°C° 0 mm 5 mps 750 mmHg 95%
    18:00 -1°C° 0 mm 5 mps 749 mmHg 92%
    19:00 -1°C° 0 mm 5 mps 749 mmHg 88%
    20:00 -1°C° 0 mm 5 mps 749 mmHg 85%
    21:00 -1°C° 0 mm 5 mps 748 mmHg 84%
    22:00 -1°C° 0 mm 4 mps 748 mmHg 83%
    23:00 -2°C° 0 mm 4 mps 747 mmHg 82%

    Tomorrow, 21 January, Tuesday

    Time Temperature Precipitation Wind Pressure Humidity
    00:00 -2°C° 0 mm 5 mps 746 mmHg 85%
    01:00 -2°C° 0 mm 5 mps 746 mmHg 87%
    02:00 -2°C° 0 mm 5 mps 745 mmHg 90%
    03:00 -2°C° 0.3 mm 5 mps 744 mmHg 90%
    04:00 -2°C° 0.3 mm 6 mps 743 mmHg 90%
    05:00 -2°C° 0.3 mm 6 mps 741 mmHg 90%
    06:00 -1°C° 0.3 mm 6 mps 741 mmHg 90%
    07:00 -1°C° 0.3 mm 6 mps 740 mmHg 90%
    08:00 +1°C° 0.3 mm 6 mps 739 mmHg 89%
    09:00 +1°C° 0.1 mm 6 mps 739 mmHg 88%
    10:00 +2°C° 0.1 mm 6 mps 738 mmHg 87%
    11:00 +3°C° 0.1 mm 6 mps 737 mmHg 86%
    12:00 +3°C° 0 mm 6 mps 737 mmHg 86%
    13:00 +3°C° 0 mm 6 mps 737 mmHg 85%
    14:00 +3°C° 0 mm 5 mps 737 mmHg 85%
    15:00 +3°C° 0.2 mm 5 mps 736 mmHg 86%
    16:00 +3°C° 0.2 mm 5 mps 735 mmHg 88%
    17:00 +2°C° 0.2 mm 5 mps 734 mmHg 90%
    18:00 +2°C° 0.5 mm 5 mps 734 mmHg 91%
    19:00 +1°C° 0.5 mm 5 mps 734 mmHg 92%
    20:00 +1°C° 0.5 mm 5 mps 734 mmHg 92%
    21:00 0°C° 0.2 mm 5 mps 734 mmHg 86%
    22:00 -1°C° 0.2 mm 6 mps 734 mmHg 80%
    23:00 -2°C° 0.2 mm 6 mps 734 mmHg 74%

    Day after tomorrow, 22 January, Wednesday

    Time Temperature Precipitation Wind Pressure Humidity
    00:00 -2°C° 0 mm 6 mps 734 mmHg 74%
    01:00 -3°C° 0 mm 6 mps 734 mmHg 74%
    02:00 -4°C° 0 mm 5 mps 734 mmHg 74%
    03:00 -4°C° 0 mm 5 mps 733 mmHg 76%
    04:00 -4°C° 0 mm 5 mps 733 mmHg 78%
    05:00 -4°C° 0 mm 5 mps 732 mmHg 81%
    06:00 -4°C° 0.1 mm 6 mps 732 mmHg 81%
    07:00 -4°C° 0.1 mm 6 mps 731 mmHg 81%
    08:00 -4°C° 0.1 mm 6 mps 731 mmHg 81%
    09:00 -4°C° 0.2 mm 6 mps 731 mmHg 77%
    10:00 -4°C° 0.2 mm 6 mps 731 mmHg 72%
    11:00 -3°C° 0.2 mm 6 mps 731 mmHg 68%
    12:00 -2°C° 0 mm 5 mps 730 mmHg 68%
    13:00 -4°C° 0 mm 5 mps 730 mmHg 68%
    14:00 -4°C° 0 mm 5 mps 730 mmHg 68%
    15:00 -4°C° 0 mm 5 mps 730 mmHg 70%
    16:00 -5°C° 0 mm 5 mps 730 mmHg 72%
    17:00 -5°C° 0 mm 5 mps 730 mmHg 74%
    18:00 -5°C° 0 mm 5 mps 731 mmHg 77%
    19:00 -6°C° 0 mm 6 mps 731 mmHg 79%
    20:00 -6°C° 0 mm 6 mps 731 mmHg 82%
    21:00 -6°C° 0.1 mm 6 mps 732 mmHg 80%
    22:00 -8°C° 0.1 mm 6 mps 733 mmHg 79%
    23:00 -8°C° 0.1 mm 6 mps 733 mmHg 77%

    23 January, Thursday

    Time Temperature Precipitation Wind Pressure Humidity
    00:00 -8°C° 0 mm 6 mps 734 mmHg 73%
    01:00 -9°C° 0 mm 6 mps 735 mmHg 69%
    02:00 -9°C° 0 mm 6 mps 735 mmHg 64%
    03:00 -9°C° 0 mm 6 mps 736 mmHg 65%
    04:00 -10°C° 0 mm 6 mps 736 mmHg 65%
    05:00 -11°C° 0 mm 7 mps 737 mmHg 66%
    06:00 -10°C° 0 mm 6 mps 737 mmHg 64%
    07:00 -10°C° 0 mm 6 mps 738 mmHg 63%
    08:00 -11°C° 0 mm 6 mps 738 mmHg 62%
    09:00 -11°C° 0 mm 6 mps 739 mmHg 61%
    10:00 -11°C° 0 mm 6 mps 740 mmHg 60%
    11:00 -11°C° 0 mm 6 mps 741 mmHg 60%
    12:00 -11°C° 0 mm 6 mps 741 mmHg 59%
    13:00 -10°C° 0 mm 5 mps 742 mmHg 58%
    14:00 -10°C° 0 mm 5 mps 742 mmHg 58%
    15:00 -10°C° 0 mm 4 mps 742 mmHg 60%
    16:00 -10°C° 0 mm 4 mps 743 mmHg 62%
    17:00 -9°C° 0 mm 3 mps 743 mmHg 64%
    18:00 -9°C° 0 mm 3 mps 743 mmHg 66%
    19:00 -8°C° 0 mm 2 mps 743 mmHg 69%
    20:00 -8°C° 0 mm 2 mps 743 mmHg 71%
    21:00 -8°C° 0 mm 2 mps 743 mmHg 69%
    22:00 -8°C° 0 mm 3 mps 742 mmHg 67%
    23:00 -8°C° 0 mm 3 mps 742 mmHg 65%

    24 January, Friday

    Time Temperature Precipitation Wind Pressure Humidity
    00:00 -8°C° 0.1 mm 3 mps 741 mmHg 74%
    01:00 -8°C° 0.1 mm 4 mps 740 mmHg 83%
    02:00 -8°C° 0.1 mm 5 mps 739 mmHg 92%
    03:00 -7°C° 0.3 mm 5 mps 738 mmHg 93%
    04:00 -6°C° 0.3 mm 5 mps 736 mmHg 93%
    05:00 -6°C° 0.3 mm 5 mps 735 mmHg 93%
    06:00 -5°C° 0.3 mm 5 mps 734 mmHg 93%
    07:00 -5°C° 0.3 mm 5 mps 734 mmHg 92%
    08:00 -4°C° 0.3 mm 5 mps 733 mmHg 92%
    09:00 -2°C° 0.1 mm 5 mps 733 mmHg 87%
    10:00 -1°C° 0.1 mm 5 mps 733 mmHg 83%
    11:00 -2°C° 0.1 mm 6 mps 733 mmHg 79%
    12:00 -2°C° 0 mm 6 mps 734 mmHg 77%
    13:00 -2°C° 0 mm 6 mps 734 mmHg 75%
    14:00 -2°C° 0 mm 6 mps 734 mmHg 74%
    15:00 -2°C° 0 mm 5 mps 735 mmHg 76%
    16:00 -2°C° 0 mm 5 mps 736 mmHg 78%
    17:00 -4°C° 0 mm 5 mps 736 mmHg 80%
    18:00 -3°C° 0 mm 4 mps 737 mmHg 82%
    19:00 -4°C° 0 mm 4 mps 737 mmHg 85%
    20:00 -4°C° 0 mm 4 mps 737 mmHg 87%
    21:00 -4°C° 0 mm 4 mps 737 mmHg 88%
    22:00 -4°C° 0 mm 3 mps 738 mmHg 89%
    23:00 -4°C° 0 mm 3 mps 738 mmHg 90%

    25 January, Saturday

    Time Temperature Precipitation Wind Pressure Humidity
    00:00 -4°C° 0 mm 3 mps 738 mmHg 91%
    01:00 -4°C° 0 mm 3 mps 738 mmHg 92%
    02:00 -3°C° 0 mm 2 mps 738 mmHg 92%
    03:00 -3°C° 0 mm 2 mps 737 mmHg 93%
    04:00 -4°C° 0 mm 2 mps 737 mmHg 93%
    05:00 -4°C° 0 mm 2 mps 737 mmHg 94%
    06:00 -3°C° 0 mm 2 mps 737 mmHg 93%
    07:00 -3°C° 0 mm 2 mps 736 mmHg 93%
    08:00 -3°C° 0 mm 2 mps 736 mmHg 93%
    09:00 -2°C° 0.1 mm 2 mps 736 mmHg 93%
    10:00 -2°C° 0.1 mm 2 mps 736 mmHg 94%
    11:00 -1°C° 0.1 mm 3 mps 736 mmHg 94%
    12:00 0°C° 0 mm 3 mps 736 mmHg 94%
    13:00 0°C° 0 mm 3 mps 736 mmHg 94%
    14:00 0°C° 0 mm 4 mps 736 mmHg 94%
    15:00 +1°C° 0 mm 3 mps 736 mmHg 91%
    16:00 0°C° 0 mm 3 mps 736 mmHg 89%
    17:00 0°C° 0 mm 3 mps 737 mmHg 87%
    18:00 0°C° 0 mm 3 mps 737 mmHg 88%
    19:00 -1°C° 0 mm 3 mps 737 mmHg 90%
    20:00 -1°C° 0 mm 3 mps 738 mmHg 92%
    21:00 -1°C° 0 mm 3 mps 738 mmHg 93%
    22:00 -2°C° 0 mm 3 mps 738 mmHg 93%
    23:00 -2°C° 0 mm 3 mps 738 mmHg 94%
    Show more